Regional Weather Roundup
Issued by NWS

Home | Current Version | Previous Version | Text Only | Print | Product List | Glossary Off
Versions: 1 2 3 4 5 6 7 8 9 10 11 12 13 14 15 16 17 18 19 20 21 22 23 24 25 26 27 28 29 30 31 32 33 34 35 36 37 38 39 40 41 42 43 44 45 46 47 48 49 50

000
ASUS43 KOAX 212310
RWRNE

WEATHER ROUNDUP FOR NEBRASKA
NATIONAL WEATHER SERVICE OMAHA NE
600 PM CDT THU AUG 21 2014

NOTES: SATELLITE DATA IS BEING USED TO AUGMENT CLOUD COVER ABOVE
       12000 FEET.
       "FAIR" INDICATES FEW OR NO CLOUDS BELOW 12,000 FEET WITH NO
       SIGNIFICANT WEATHER AND/OR OBSTRUCTIONS TO VISIBILITY.

  * THESE STATIONS DO NOT REPORT WEATHER SUCH AS RAIN...SNOW OR FOG.

NEZ001>004-019>022-054>056-220000-
NEBRASKA PANHANDLE

CITY           SKY/WX    TMP DP  RH WIND       PRES   REMARKS
SCOTTSBLUFF    MOSUNNY   89  43  20 W7        29.99F
ALLIANCE       PTSUNNY   86  48  26 CALM      29.98F
CHADRON        PTSUNNY   86  51  29 SE10      29.93S
KIMBALL        PTSUNNY   81  43  25 CALM      30.05S
SIDNEY         MOSUNNY   89  45  21 N9        30.03S
$$

NEZ057>060-069>072-079>082-220000-
SOUTHWEST NEBRASKA

CITY           SKY/WX    TMP DP  RH WIND       PRES   REMARKS
NORTH PLATTE   MOSUNNY   89  63  41 E7        29.91S HX  90
IMPERIAL       SUNNY     91  52  26 NE7       29.95S
LEXINGTON      MOSUNNY   89  69  51 CALM      29.89S HX  93
MCCOOK         MOSUNNY   95  55  26 NW8       29.89S HX  93
OGALLALA       MOSUNNY   89  53  28 NE5       29.94S
$$

NEZ005>010-023>029-035>040-094-220000-
NORTH CENTRAL NEBRASKA

CITY           SKY/WX    TMP DP  RH WIND       PRES   REMARKS
VALENTINE      SUNNY     87  57  35 CALM      29.93S
AINSWORTH      SUNNY     84  62  46 E5        29.92S
BROKEN BOW     SUNNY     89  67  47 N6        29.91S HX  92
O`NEILL        SUNNY     87  68  52 N6        29.89S HX  90
ORD            SUNNY     89  68  49 N3        29.87S HX  93
THEDFORD       SUNNY     88  60  38 N5        29.95S
$$

NEZ041-046>049-061>064-073>077-083>087-220000-
SOUTH CENTRAL NEBRASKA

CITY           SKY/WX    TMP DP  RH WIND       PRES   REMARKS
GRAND ISLAND   MOSUNNY   88  69  53 CALM      29.86F HX  92
AURORA         MOSUNNY   87  72  61 CALM      29.86S HX  93
HASTINGS       SUNNY     86  72  62 NE7       29.86S HX  92
HEBRON         SUNNY     92  71  49 SE6       29.81F HX  98
HOLDREGE       MOSUNNY   87  70  57 E6        29.87F HX  91
KEARNEY *      MOSUNNY   86  73  66 SE3       29.88S HX  93
YORK           MOSUNNY   84 N/A N/A NW5       29.86S
$$

NEZ011>018-030>034-042>045-220000-
NORTHEAST NEBRASKA

CITY           SKY/WX    TMP DP  RH WIND       PRES   REMARKS
NORFOLK        SUNNY     89  71  55 SW5       29.84S HX  95
ALBION         SUNNY     87  70  57 CALM      29.87R HX  91
BLAIR          MOSUNNY   89  70  54 SW8       29.85S HX  94
FREMONT        SUNNY     89  68  48 SW3       29.85S HX  93
TEKAMAH        SUNNY     90  72  55 SW9       29.83R HX  97
WAYNE          SUNNY     88  74  63 NW7       29.85S HX  97
$$

NEZ050>053-065>068-078-088>093-220000-
SOUTHEAST NEBRASKA

CITY           SKY/WX    TMP DP  RH WIND       PRES   REMARKS
LINCOLN        MOSUNNY   90  71  53 N7        29.84F HX  96
OMAHA EPPLEY   MOSUNNY   92  69  47 W8        29.84R HX  97
BEATRICE       MOSUNNY   92  75  56 CALM      29.83S HX 102
FALLS CITY     PTSUNNY   98  72  42 S9        29.80S HX 107
NEBRASKA CITY  PTSUNNY   86  75  71 N9        29.84S HX  95
PLATTSMOUTH    MOSUNNY   89  72  57 CALM      29.85S HX  95
$$

NEZ044-045-051>053-067-220000-
OMAHA AREA

CITY           SKY/WX    TMP DP  RH WIND       PRES   REMARKS
OMAHA EPPLEY   MOSUNNY   92  69  47 W8        29.84R HX  97
BLAIR          MOSUNNY   89  70  54 SW8       29.85S HX  94
FREMONT        SUNNY     89  68  48 SW3       29.85S HX  93
MILLARD        MOSUNNY   90  71  53 W6        29.84S HX  96
OFFUTT AFB     MOSUNNY   89  74  59 CALM      29.84R HX  98
PLATTSMOUTH    MOSUNNY   89  72  57 CALM      29.85S HX  95
WAHOO          FAIR      89  69  50 W3        29.85R HX  93
$$



USA.gov is the U.S. government's official web portal to all federal, state and local government web resources and services.